Wetbulb
54.72 53.99 53.25 55.82 56.44 52.79 52.46 53.57 53.14 54.37 56.65 56.22 55.85 55.77 56.59 59.18 59.17 60.27 60.85 63.51 63.01 62.72 63.05 62.12 61.56 60.94 60.59 60.35 59.35 58.96 57.46 58.72 59.01 58.30 57.50 57.43 56.71 57.98 58.55 59.02 59.91 59.40 58.85 58.85
53.61 52.52 53.99 53.62 51.95 53.30 54.71 54.12 52.42 53.85 55.87 56.51 54.95 54.80 57.93 59.38 59.40 60.48 60.42 60.93 63.37 63.15 62.86 61.78 61.15 61.25 60.00 59.93 58.99 58.32 57.52 57.89 58.04 57.86 58.41 58.27 57.70 58.40 58.41 59.23 59.74 59.31 58.92 58.54
52.57 53.25 53.61 54.73 55.55 54.59 54.37 53.67 52.96 53.10 54.91 56.00 54.71 53.03 54.82 57.46 59.21 60.48 61.57 61.48 62.70 63.78 62.96 62.42 61.14 60.70 60.06 59.13 58.18 57.78 57.43 57.61 58.01 58.67 58.93 59.07 59.33 59.19 57.84 57.95 57.26 58.03 58.54 57.80
53.05 53.34 53.71 54.20 53.36 54.78 51.94 54.86 55.01 53.58 52.82 50.40 53.80 48.20 52.38 55.49 56.05 57.51 60.49 60.16 62.57 63.93 64.31 63.94 62.29 60.80 60.53 59.62 59.77 58.11 56.81 57.19 57.46 58.79 58.28 57.86 56.24 55.39 56.67 57.05 57.05 57.76 58.44 57.68
51.98 52.02 52.04 52.72 52.94 55.52 52.62 56.71 54.85 53.16 52.51 52.11 50.88 48.96 50.97 53.95 53.89 56.43 59.19 60.42 62.03 64.39 64.87 63.96 63.24 61.84 61.18 59.83 59.36 59.25 56.81 57.07 57.40 57.99 58.31 57.36 57.12 57.18 57.37 57.58 57.75 58.10 58.03 57.73
52.41 54.77 53.53 54.72 56.40 57.03 56.64 54.82 53.36 52.39 51.46 47.56 49.48 49.47 51.27 52.76 54.77 57.12 59.10 60.78 61.58 63.31 64.92 64.77 64.26 61.97 61.16 60.03 59.23 58.56 56.72 56.92 57.54 57.60 57.50 57.85 57.50 57.38 56.73 57.03 56.47 56.41 56.53 56.55
52.61 53.00 56.63 57.75 54.38 55.98 55.30 53.90 48.18 46.15 46.14 46.20 50.77 48.83 52.67 55.74 57.14 58.13 59.49 60.65 61.26 62.87 63.41 63.41 61.95 60.36 60.87 59.40 58.75 58.43 57.38 56.72 56.81 56.89 57.40 57.69 57.78 58.03 57.61 57.11 56.21 55.81 55.45 55.42
49.00 47.37 54.70 55.07 55.85 54.62 54.59 52.71 48.71 41.58 43.13 46.07 50.07 47.94 53.58 57.14 58.72 59.38 60.10 62.38 62.21 62.86 61.64 62.88 61.24 60.64 60.75 59.74 59.05 58.36 57.64 57.08 56.67 56.98 57.05 57.89 58.25 58.35 58.17 57.79 57.07 55.86 55.44 55.65
50.40 49.85 55.80 55.49 54.95 56.72 53.38 50.01 52.54 48.74 47.81 47.52 49.55 52.36 56.67 56.74 57.44 58.32 59.32 60.77 61.42 61.36 60.56 61.33 59.93 60.54 60.85 60.17 59.28 58.41 58.02 57.52 57.03 56.96 58.34 58.03 58.25 58.55 58.39 58.46 58.31 56.63 56.99 56.02
54.46 49.80 55.19 54.78 55.94 54.75 54.37 53.03 49.11 50.81 43.14 41.26 46.86 48.08 50.42 54.88 56.74 57.96 57.59 58.82 60.59 60.91 59.88 58.37 59.34 59.69 61.20 60.93 59.97 58.80 58.09 57.61 57.39 56.71 58.11 57.90 57.94 58.53 58.70 58.21 57.95 57.97 57.66 57.40
55.79 54.99 53.09 55.44 53.63 52.65 52.15 51.36 50.28 51.35 50.03 45.03 43.66 46.77 57.01 57.20 58.63 58.78 58.96 59.53 59.55 59.75 59.52 58.70 59.47 59.92 60.94 60.47 59.30 58.46 57.70 57.61 57.36 57.13 57.60 57.82 58.08 58.12 58.56 58.29 57.79 57.77 57.78 57.51
56.09 55.81 51.66 51.86 54.78 55.39 53.61 52.06 53.03 49.29 46.66 49.29 48.68 48.74 56.31 57.99 58.33 59.57 59.96 59.04 59.58 60.02 59.65 59.54 59.11 59.25 59.36 59.28 58.48 57.62 57.88 57.36 57.88 57.83 57.23 57.49 58.09 57.63 58.06 58.46 58.47 58.13 57.70 57.61
57.20 53.81 49.52 50.12 53.05 54.33 53.71 52.01 51.80 52.43 52.51 49.44 47.07 48.84 56.51 58.27 58.21 59.19 59.49 58.66 58.28 58.24 58.84 58.69 57.83 57.68 57.97 58.08 57.70 56.94 57.46 57.57 58.01 57.78 57.41 57.56 57.82 58.04 57.82 58.42 58.95 58.84 58.31 57.84
59.67 53.54 53.64 48.83 50.43 52.43 51.57 50.99 51.85 53.56 50.54 49.99 50.54 51.88 55.28 57.85 57.84 58.85 58.76 60.12 58.59 57.69 58.50 58.24 57.38 57.47 57.42 57.37 56.99 56.88 57.03 57.54 57.73 57.51 57.62 57.12 57.69 58.07 58.27 58.50 58.94 59.05 59.21 57.78
58.59 53.86 52.16 51.54 51.68 52.86 52.24 51.78 51.44 51.13 53.33 50.13 51.58 51.61 55.52 58.36 59.87 59.96 60.81 59.84 57.74 57.32 57.81 57.28 57.37 57.59 57.45 57.26 57.12 56.91 57.40 57.73 57.42 57.11 56.96 57.29 58.09 58.10 58.14 58.07 58.69 58.77 59.01 58.23
55.73 53.06 53.14 51.48 53.09 52.90 51.99 52.46 52.11 52.09 52.04 52.34 53.33 53.62 58.64 59.57 59.49 58.43 59.43 58.64 57.40 57.49 57.81 57.30 57.65 57.72 57.42 57.33 57.46 57.40 57.48 57.97 58.23 57.57 56.76 57.42 57.68 57.70 58.09 58.46 58.26 58.53 58.65 58.74
56.19 54.74 52.73 48.84 51.97 52.18 49.44 52.30 52.22 52.87 54.31 54.52 51.86 55.98 58.27 58.85 59.05 60.49 60.34 59.29 58.87 58.72 58.53 57.14 57.64 57.64 58.16 57.73 58.71 57.80 58.18 58.42 57.86 57.55 57.34 56.92 57.20 57.31 57.83 58.13 57.90 58.15 58.26 58.59
54.81 54.19 52.33 49.75 51.61 43.11 52.50 56.29 56.08 54.20 55.56 56.62 56.37 57.12 58.39 59.25 59.93 59.78 60.39 60.40 59.55 59.14 58.43 57.82 58.90 58.38 59.07 59.23 58.89 59.13 58.09 57.59 57.19 57.03 56.76 56.91 57.06 56.99 57.48 57.80 58.02 58.63 58.62 57.93
56.53 55.20 50.66 49.49 48.55 50.15 53.15 55.02 54.85 54.18 54.91 57.03 56.86 57.38 57.96 58.18 59.03 60.81 59.84 60.55 60.54 59.47 59.15 59.61 60.31 59.87 59.69 59.04 59.41 58.74 58.08 57.43 56.71 56.43 56.67 57.02 57.01 56.91 57.17 57.13 57.96 58.87 58.56 58.26
56.76 57.19 54.68 50.43 47.10 44.69 53.73 56.95 58.34 57.73 51.39 56.62 58.03 58.42 58.64 58.53 53.76 57.26 59.21 58.38 58.67 59.27 59.48 59.57 59.67 59.53 59.76 59.56 59.38 58.37 57.76 57.17 56.32 56.64 57.08 57.55 57.70 57.38 57.10 57.98 58.55 59.01 58.63 57.90
54.30 54.45 52.46 49.29 50.22 52.57 57.03 57.52 58.25 50.34 53.34 58.01 58.03 59.02 58.57 58.49 59.66 58.66 58.08 57.88 58.82 59.53 59.49 60.31 59.44 59.48 60.31 60.16 58.90 57.90 57.89 57.17 57.73 57.93 57.68 57.95 58.26 58.23 58.61 58.66 58.81 58.34 58.45 58.59
54.05 53.43 52.65 51.99 50.05 47.24 58.41 58.07 54.12 59.61 61.28 59.08 58.46 59.22 59.30 60.23 59.20 57.90 57.91 58.81 59.28 59.07 59.12 59.20 59.03 59.90 60.35 59.98 58.97 58.51 58.00 59.32 58.84 57.91 57.84 58.11 58.70 58.41 57.61 58.31 58.58 58.64 58.28 57.82
51.28 55.05 55.35 55.29 54.55 58.03 60.12 60.23 62.23 62.40 62.16 60.58 59.05 60.40 60.47 60.20 58.95 58.72 58.95 59.49 59.92 60.10 59.99 59.91 60.14 60.23 60.02 59.60 59.52 59.03 59.88 60.35 59.15 58.27 57.89 58.69 59.05 58.45 58.66 57.99 57.73 57.26 58.45 57.85
55.44 55.95 54.79 54.63 57.12 57.97 59.90 61.58 62.66 62.70 62.18 60.96 60.45 60.76 60.79 60.90 60.37 59.29 59.63 59.74 59.71 60.21 60.26 60.40 60.21 59.66 59.96 60.19 59.73 59.94 60.82 60.43 59.28 58.65 58.66 59.33 59.18 58.39 59.00 58.12 57.84 57.26 57.52 57.74
55.57 56.19 54.74 55.85 57.95 58.92 60.61 60.99 62.11 61.29 60.99 59.85 60.41 61.40 61.22 61.66 60.49 60.34 59.03 59.90 60.07 60.48 60.18 60.44 60.34 60.27 60.27 61.17 60.68 61.03 60.61 60.12 58.70 58.98 59.02 58.98 59.14 59.25 58.97 59.00 58.22 58.33 60.87 57.89
57.27 56.63 55.05 54.56 59.07 61.06 60.34 61.16 61.79 60.65 60.67 60.90 59.93 60.46 61.85 61.79 61.17 60.40 59.44 60.10 60.34 59.74 59.82 59.97 60.58 60.39 60.17 60.67 60.92 61.21 61.64 60.40 58.69 58.66 59.05 59.28 59.35 59.29 58.78 58.33 58.69 49.38 48.07 46.82
MSLP
1011.18 1011.11 1011.37 1011.66 1011.52 1012.48 1013.17 1014.61 1016.07 1017.58 1018.45 1018.71 1019.22 1019.46 1020.06 1020.93 1021.56 1021.59 1021.66 1021.89 1022.31 1022.60 1023.01 1023.40 1023.77 1024.16 1024.21 1024.37 1024.54 1024.93 1025.02 1024.96 1024.42 1023.85 1023.58 1023.35 1023.20 1023.13 1022.85 1022.81 1022.78 1022.48 1022.11 1021.77
1011.10 1010.74 1011.08 1012.01 1012.14 1012.74 1013.59 1014.76 1016.43 1017.90 1018.45 1018.46 1019.30 1019.72 1020.02 1020.50 1020.83 1020.81 1020.88 1021.14 1021.52 1022.10 1022.52 1023.04 1023.48 1023.97 1024.08 1024.21 1024.67 1025.00 1025.25 1025.20 1024.74 1024.24 1024.18 1024.05 1023.82 1023.44 1023.27 1022.98 1022.83 1022.75 1022.46 1022.21
1010.39 1010.81 1011.10 1011.67 1012.58 1013.07 1014.54 1014.99 1016.26 1016.89 1018.28 1018.81 1019.05 1019.13 1019.28 1019.87 1020.14 1020.18 1020.22 1020.33 1020.65 1021.23 1021.82 1022.47 1023.16 1023.56 1023.91 1024.27 1024.61 1025.02 1025.21 1025.20 1024.92 1024.70 1024.32 1024.04 1023.82 1023.47 1023.21 1023.11 1022.94 1022.97 1022.81 1022.58
1010.34 1010.78 1011.03 1011.77 1012.49 1013.09 1014.28 1015.19 1016.11 1017.01 1017.36 1018.20 1019.17 1018.13 1018.46 1019.03 1019.19 1019.25 1019.08 1019.34 1019.59 1020.48 1021.13 1021.82 1022.48 1023.12 1023.75 1024.13 1024.77 1024.96 1025.24 1025.23 1025.03 1024.77 1024.36 1024.31 1023.94 1023.71 1023.83 1023.69 1023.45 1023.11 1023.08 1022.81
1010.48 1010.61 1011.17 1011.85 1012.76 1013.36 1015.05 1015.68 1016.06 1016.88 1017.24 1017.96 1018.58 1018.33 1017.54 1018.33 1017.98 1017.90 1018.04 1018.58 1019.00 1019.62 1020.22 1020.85 1021.73 1022.57 1023.39 1024.05 1024.42 1024.90 1025.33 1025.33 1025.17 1024.85 1024.60 1024.20 1024.11 1024.07 1023.98 1023.73 1023.60 1023.29 1023.05 1022.96
1010.47 1010.86 1011.38 1012.62 1013.35 1013.69 1015.12 1015.61 1016.20 1016.58 1016.91 1017.18 1017.70 1017.99 1016.46 1016.90 1016.57 1016.67 1017.13 1017.79 1018.54 1019.20 1019.61 1020.34 1021.36 1022.38 1023.12 1023.71 1024.02 1024.55 1024.96 1025.04 1025.03 1024.86 1024.70 1024.56 1024.44 1024.27 1023.93 1023.83 1023.48 1023.22 1023.00 1022.82
1010.54 1011.13 1012.04 1012.35 1013.46 1014.58 1014.70 1015.05 1015.58 1016.09 1016.40 1016.64 1017.55 1017.55 1015.33 1015.51 1015.72 1015.78 1016.23 1017.06 1018.01 1018.87 1019.53 1020.29 1021.12 1021.91 1022.77 1023.27 1023.73 1024.21 1024.55 1024.69 1024.92 1024.84 1024.68 1024.61 1024.49 1024.37 1024.15 1023.90 1023.56 1023.50 1023.13 1022.98
1010.87 1011.48 1011.76 1011.85 1012.20 1012.77 1014.06 1014.60 1014.52 1015.05 1015.75 1016.24 1017.33 1016.19 1014.96 1015.42 1015.59 1015.68 1015.84 1016.31 1017.34 1018.41 1019.11 1019.61 1020.66 1021.51 1022.17 1022.86 1023.40 1023.87 1024.09 1024.30 1024.53 1024.52 1024.50 1024.53 1024.45 1024.21 1024.04 1023.92 1023.81 1023.57 1023.41 1023.24
1010.98 1011.27 1011.49 1011.69 1011.99 1012.40 1013.64 1014.37 1014.75 1015.31 1016.43 1015.92 1015.84 1015.29 1014.43 1014.92 1015.20 1015.62 1015.80 1016.44 1017.07 1017.77 1018.78 1019.59 1020.38 1021.22 1021.88 1022.62 1023.16 1023.72 1024.05 1024.26 1024.38 1024.35 1024.41 1024.44 1024.41 1024.25 1024.03 1023.99 1023.97 1023.70 1023.55 1023.30
1011.00 1011.27 1011.46 1011.68 1011.79 1012.53 1012.63 1013.83 1014.52 1014.81 1015.07 1015.17 1015.12 1014.99 1014.39 1014.12 1014.49 1015.35 1015.92 1016.31 1016.97 1017.76 1018.67 1019.57 1020.24 1021.10 1021.71 1022.22 1022.86 1023.53 1023.94 1024.12 1024.18 1024.24 1024.29 1024.37 1024.33 1024.19 1024.05 1024.01 1023.90 1023.76 1023.56 1023.48
1011.26 1011.52 1011.75 1011.71 1011.66 1011.81 1012.98 1013.25 1014.26 1014.93 1015.10 1014.79 1014.53 1013.84 1013.73 1013.81 1014.07 1014.67 1015.30 1015.95 1016.74 1017.51 1018.16 1018.98 1019.82 1020.59 1021.37 1022.04 1022.63 1023.16 1023.55 1023.83 1024.02 1024.08 1024.14 1024.18 1024.11 1024.03 1024.03 1023.98 1023.85 1023.69 1023.57 1023.47
1011.73 1011.97 1011.85 1011.76 1012.02 1012.14 1012.20 1012.75 1013.40 1013.82 1014.71 1014.91 1014.55 1013.57 1013.59 1013.88 1014.35 1014.66 1015.09 1015.89 1016.55 1017.35 1017.91 1018.70 1019.73 1020.40 1021.04 1021.74 1022.32 1022.85 1023.20 1023.32 1023.46 1023.72 1023.83 1023.83 1023.94 1023.98 1023.92 1023.78 1023.62 1023.48 1023.47 1023.37
1011.77 1012.35 1012.27 1012.14 1012.30 1012.25 1012.21 1012.71 1013.25 1013.74 1013.96 1014.02 1013.69 1012.93 1013.52 1013.84 1014.20 1014.62 1014.86 1015.53 1016.37 1017.29 1017.83 1018.63 1019.63 1020.26 1020.92 1021.54 1022.03 1022.42 1022.82 1022.92 1023.11 1023.35 1023.43 1023.62 1023.66 1023.78 1023.76 1023.67 1023.49 1023.33 1023.29 1023.18
1011.73 1012.26 1011.87 1011.69 1011.57 1011.75 1012.04 1012.35 1012.77 1012.88 1013.07 1012.99 1012.78 1012.57 1012.77 1013.22 1013.64 1014.26 1014.61 1015.06 1015.69 1016.73 1017.45 1018.30 1019.31 1019.93 1020.64 1021.37 1021.79 1022.21 1022.54 1022.62 1022.61 1022.88 1023.05 1023.26 1023.39 1023.40 1023.49 1023.47 1023.33 1023.19 1023.02 1022.99
1012.21 1012.29 1012.22 1011.97 1011.83 1011.79 1011.67 1011.85 1012.21 1012.43 1012.25 1012.22 1012.03 1012.33 1012.20 1012.58 1012.98 1013.54 1014.25 1015.02 1015.67 1016.37 1017.17 1017.95 1018.72 1019.40 1020.15 1020.86 1021.45 1021.93 1022.15 1022.31 1022.33 1022.54 1022.70 1022.74 1023.01 1023.19 1023.20 1023.23 1023.12 1022.90 1022.74 1022.61
1012.54 1012.71 1012.31 1012.13 1012.06 1011.90 1011.70 1011.64 1011.80 1012.19 1012.31 1012.18 1012.22 1012.03 1012.04 1012.63 1013.10 1013.67 1014.05 1014.69 1015.14 1015.77 1016.53 1017.48 1018.29 1018.97 1019.67 1020.24 1020.84 1021.46 1021.76 1021.87 1022.28 1022.30 1022.23 1022.34 1022.47 1022.68 1022.88 1022.95 1022.90 1022.73 1022.46 1022.27
1012.46 1012.61 1012.63 1012.35 1012.25 1011.82 1011.72 1011.54 1011.75 1011.90 1012.00 1011.91 1011.83 1011.78 1012.30 1012.47 1012.91 1013.14 1013.65 1014.19 1014.45 1015.10 1016.04 1017.02 1017.72 1018.48 1019.18 1019.89 1020.41 1020.95 1021.29 1021.76 1021.98 1021.99 1022.04 1022.13 1022.24 1022.37 1022.47 1022.57 1022.52 1022.23 1022.08 1022.00
1012.74 1012.96 1013.10 1012.61 1012.44 1011.92 1011.31 1011.80 1011.92 1011.99 1011.82 1012.05 1012.18 1012.39 1012.74 1012.74 1013.07 1013.30 1013.56 1013.84 1014.34 1014.99 1015.78 1016.70 1017.27 1018.03 1018.75 1019.49 1020.15 1020.54 1021.04 1021.43 1021.68 1021.72 1021.67 1021.79 1021.84 1021.89 1022.04 1022.15 1022.04 1021.75 1021.67 1021.49
1012.72 1012.80 1013.16 1013.09 1012.46 1012.15 1011.36 1011.70 1011.84 1011.85 1011.79 1012.11 1012.23 1012.50 1012.97 1013.23 1013.27 1013.11 1013.71 1014.01 1014.24 1014.86 1015.67 1016.12 1016.71 1017.73 1018.69 1019.33 1019.89 1020.27 1020.69 1021.08 1021.33 1021.48 1021.39 1021.33 1021.43 1021.45 1021.50 1021.45 1021.38 1021.24 1021.08 1020.76
1013.17 1012.95 1012.71 1013.14 1012.44 1011.83 1011.34 1011.45 1011.78 1011.91 1011.95 1012.08 1012.22 1012.45 1012.93 1013.26 1013.10 1013.50 1014.02 1014.35 1014.68 1015.09 1015.61 1016.15 1016.94 1017.85 1018.51 1019.20 1019.77 1020.16 1020.45 1020.79 1020.95 1021.08 1021.17 1021.07 1021.10 1021.12 1020.97 1020.81 1020.73 1020.67 1020.49 1020.09
1013.42 1013.42 1013.04 1013.00 1012.47 1011.94 1011.53 1011.77 1012.17 1012.41 1013.16 1012.66 1012.98 1013.06 1013.42 1013.36 1013.58 1014.00 1014.16 1014.61 1015.10 1015.42 1015.98 1016.51 1017.17 1017.49 1018.21 1019.03 1019.53 1019.95 1020.16 1020.11 1020.23 1020.59 1020.70 1020.69 1020.63 1020.58 1020.43 1020.34 1020.19 1020.08 1019.79 1019.44
1013.57 1013.59 1013.59 1013.52 1012.84 1012.31 1011.99 1012.09 1012.36 1012.46 1012.57 1012.43 1012.86 1013.01 1013.17 1013.50 1013.94 1014.22 1014.51 1014.82 1015.16 1015.60 1016.13 1016.55 1017.05 1017.54 1018.13 1018.62 1019.23 1019.49 1019.67 1019.62 1019.93 1020.12 1020.13 1019.95 1019.87 1019.80 1019.69 1019.68 1019.44 1019.28 1019.17 1018.80
1014.08 1013.86 1013.51 1013.02 1012.41 1012.30 1012.23 1012.15 1012.23 1012.48 1012.52 1012.52 1012.62 1012.70 1013.07 1013.49 1013.71 1014.11 1014.62 1014.95 1015.28 1015.80 1016.26 1016.64 1016.97 1017.63 1018.24 1018.67 1018.95 1019.05 1018.87 1019.22 1019.49 1019.50 1019.40 1019.25 1019.15 1019.02 1019.01 1019.04 1018.82 1018.56 1018.27 1018.00
1013.95 1014.14 1013.82 1013.08 1012.50 1012.27 1012.16 1012.14 1012.21 1012.34 1012.33 1012.55 1012.46 1012.74 1012.94 1012.90 1013.33 1013.78 1014.22 1014.77 1015.38 1015.90 1016.23 1016.58 1016.99 1017.32 1017.80 1018.40 1018.56 1018.67 1018.77 1019.04 1019.26 1019.04 1018.92 1018.87 1018.72 1018.34 1018.18 1018.08 1017.93 1017.68 1017.43 1017.16
1014.22 1014.33 1013.79 1013.13 1012.50 1012.36 1011.95 1011.96 1011.92 1012.09 1012.24 1012.43 1012.60 1012.76 1012.76 1013.09 1013.30 1013.49 1014.12 1014.52 1014.92 1015.59 1016.22 1016.56 1016.81 1017.10 1017.49 1017.86 1017.96 1018.21 1018.40 1018.61 1018.75 1018.76 1018.47 1018.20 1018.07 1017.75 1017.34 1017.04 1016.84 1016.67 1016.41 1016.46
1014.12 1013.87 1013.69 1013.03 1012.66 1012.27 1011.98 1012.03 1012.11 1012.20 1012.36 1012.55 1012.64 1012.72 1012.93 1013.14 1013.33 1013.79 1014.23 1014.82 1015.30 1015.60 1016.12 1016.52 1016.87 1017.15 1017.13 1017.18 1017.33 1017.49 1017.86 1018.13 1018.24 1018.11 1017.67 1017.21 1016.99 1016.66 1016.49 1016.17 1015.70 1015.63 1015.53 1015.39
Wind_Speed
3 6 6 13 14 2 3 6 9 2 3 1 4 9 14 11 9 7 6 7 8 8 7 7 6 3 4 7 8 7 8 8 5 4 5 4 5 6 6 7 9 10 11 13
4 2 2 5 5 7 9 14 7 5 2 0 5 4 8 8 6 8 9 9 9 9 9 8 6 4 2 5 4 4 6 5 4 4 3 3 4 4 5 6 8 11 12 12
3 3 1 5 12 13 5 3 9 5 7 6 5 3 7 5 8 8 10 9 10 12 11 10 8 5 4 3 2 3 5 5 5 5 3 2 1 2 5 7 8 9 11 11
2 1 6 10 5 2 5 2 9 14 5 1 3 2 6 7 9 10 12 13 12 12 11 10 9 7 6 5 4 2 3 4 3 4 5 6 5 5 5 5 6 7 9 10
2 2 4 4 3 3 4 10 11 6 4 2 4 5 4 2 10 13 13 13 12 13 14 13 11 8 7 6 5 3 1 2 2 4 5 4 5 4 4 4 7 8 8 9
3 1 3 5 9 6 18 10 6 4 1 3 2 4 3 6 10 8 12 16 14 14 14 11 9 9 8 7 6 4 4 2 3 2 3 4 5 5 6 6 6 7 6 6
3 3 4 13 13 7 3 6 2 2 3 1 3 4 7 7 10 8 11 13 12 14 12 12 13 11 10 9 6 5 5 3 3 3 3 4 4 5 5 6 6 7 6 6
2 4 7 5 3 6 13 3 3 4 3 2 3 5 1 1 5 7 8 12 12 14 11 14 12 11 11 9 7 6 5 5 3 3 3 4 4 4 4 4 5 5 6 6
4 3 1 1 4 5 6 6 3 6 1 3 1 4 9 3 3 6 7 10 13 15 12 13 12 10 10 9 7 6 6 5 4 3 3 4 4 5 5 5 5 5 5 6
5 3 1 4 4 8 3 8 3 2 1 2 3 5 4 4 6 8 9 11 12 11 12 11 10 9 9 8 6 6 6 6 5 4 3 4 4 5 4 4 5 5 5 6
5 1 3 3 3 5 5 3 5 3 3 2 2 3 5 6 6 11 12 12 12 13 13 12 10 10 8 7 7 7 6 7 7 5 3 4 4 4 4 5 5 5 5 5
2 3 3 2 1 2 1 1 4 3 3 1 2 4 0 3 3 9 10 10 10 11 12 11 10 10 9 9 7 7 6 8 7 6 5 5 4 4 5 5 5 5 6 5
7 1 3 2 2 2 4 3 3 5 2 6 3 2 2 4 5 7 11 11 12 12 13 11 10 10 9 9 8 6 7 8 6 6 7 6 5 5 5 5 5 5 5 6
6 3 4 6 2 2 3 4 5 3 4 5 7 7 4 5 5 7 11 12 14 14 14 12 11 10 9 8 8 7 7 6 5 6 7 8 7 6 5 5 5 6 6 6
1 3 2 2 1 2 4 5 9 10 6 7 4 5 2 3 8 9 9 9 11 14 14 13 13 11 11 10 9 8 7 5 5 5 6 8 7 6 6 6 6 6 6 7
1 3 2 3 2 1 4 3 5 9 4 9 4 6 5 2 2 6 8 10 13 14 15 14 14 12 12 11 10 9 8 6 5 6 7 5 6 6 7 7 7 7 7 7
2 5 2 2 2 1 5 3 3 4 4 3 6 1 2 4 7 8 8 11 15 14 13 14 15 13 11 10 9 10 8 5 6 6 6 6 5 6 7 8 8 9 7 7
5 4 1 1 1 3 3 2 6 8 7 8 2 2 5 3 4 6 5 10 12 11 11 13 12 11 10 8 8 7 5 5 6 7 6 7 6 7 7 8 10 10 7 8
1 5 4 2 2 4 1 2 1 2 3 4 4 2 1 1 3 1 4 7 9 9 10 11 10 10 9 8 8 7 6 6 6 8 8 7 8 8 8 8 9 9 8 9
6 4 2 4 3 4 3 3 5 6 4 4 5 3 4 1 4 3 6 2 4 7 8 8 10 9 8 7 6 6 6 6 7 8 8 8 8 8 10 9 9 9 8 9
2 2 3 3 3 4 3 1 1 4 3 4 3 1 4 2 2 1 1 2 2 5 7 8 10 9 9 7 7 7 7 8 9 7 8 8 8 9 10 10 9 9 10 10
4 5 3 3 2 5 1 3 3 2 4 3 4 5 7 4 2 2 2 4 6 8 9 9 9 8 8 8 7 8 9 10 7 8 9 10 10 8 8 10 10 10 10 11
4 3 2 6 1 1 3 2 1 4 4 3 3 5 5 5 4 6 6 7 8 8 7 8 8 7 6 7 8 8 12 8 8 9 11 11 11 10 10 10 11 10 10 10
3 3 2 3 3 4 4 6 7 5 6 3 3 4 8 7 7 9 9 9 7 7 8 8 8 7 7 8 9 11 10 7 9 10 11 11 11 12 10 9 9 9 9 10
2 4 2 4 5 5 5 5 4 4 4 3 4 4 5 6 8 10 6 8 9 8 7 6 6 6 6 6 9 10 11 8 10 11 11 12 11 12 11 10 10 10 10 10
4 3 2 3 4 2 2 2 1 2 1 1 2 3 4 8 8 7 7 4 5 6 5 5 5 6 9 10 9 8 8 8 8 11 11 11 11 11 11 10 11 13 18 15
Wind_Direction
40 159 178 194 237 302 225 145 122 90 66 114 104 170 176 185 198 215 220 203 200 200 180 172 154 147 102 69 53 30 6 360 3 10 0 5 14 14 21 18 17 13 11 12
145 85 153 129 164 151 150 130 111 110 53 181 145 169 207 210 216 221 227 212 204 198 193 193 175 183 111 88 62 32 17 358 9 28 27 2 352 6 3 12 17 12 7 9
139 66 273 137 135 108 121 132 164 134 120 72 153 214 217 214 225 228 232 235 211 204 208 200 193 197 185 157 152 41 10 1 24 15 17 18 24 27 14 12 9 3 4 5
120 77 96 107 107 147 153 202 141 133 183 139 310 298 233 214 236 228 218 205 203 202 211 209 201 195 206 204 174 147 2 350 36 19 43 39 27 8 6 349 357 355 3 3
79 38 130 107 54 83 93 138 118 122 91 175 191 259 117 225 247 238 225 215 206 203 207 207 202 201 205 187 180 148 317 336 7 30 28 21 20 11 352 350 348 359 2 6
60 85 45 80 53 125 135 115 87 99 122 262 118 280 194 185 221 237 218 220 213 209 209 206 194 191 199 186 177 177 229 287 335 348 25 18 1 355 355 360 351 360 360 2
63 36 71 129 103 130 158 155 130 236 214 267 118 235 277 192 210 226 214 210 204 204 207 200 188 191 196 191 191 199 221 267 316 298 344 356 340 328 335 345 357 351 360 4
125 139 183 163 185 184 177 226 270 270 234 79 158 241 45 231 274 240 211 199 187 194 205 196 194 192 197 186 193 211 215 243 266 301 344 345 337 329 325 347 343 353 355 1
159 195 192 314 143 165 171 213 81 107 12 243 225 267 262 236 215 207 187 184 189 199 191 195 185 193 190 186 195 217 229 236 259 294 309 335 340 333 340 340 328 343 345 348
179 152 182 161 134 61 228 129 186 135 163 290 220 280 277 254 217 203 204 206 204 201 182 185 185 188 185 182 192 209 224 242 252 265 281 316 332 329 327 327 327 333 337 340
144 192 151 211 206 178 154 168 73 88 319 267 270 292 216 254 232 214 215 208 206 194 185 187 185 182 177 180 197 209 218 227 237 246 262 280 313 323 310 310 320 326 327 330
128 125 199 170 61 340 100 156 165 247 189 63 320 273 187 228 261 227 222 216 211 201 193 190 184 170 171 188 196 214 228 232 237 243 253 263 286 299 297 294 305 308 312 315
179 140 132 122 172 134 230 164 125 107 148 187 246 289 181 251 256 232 215 204 200 200 196 191 176 179 180 192 197 213 226 235 241 243 248 259 264 276 291 302 296 295 291 295
105 135 179 209 145 120 199 199 186 192 215 182 241 296 249 217 222 217 213 209 201 199 201 189 187 184 184 196 202 209 232 232 229 244 249 256 259 266 286 299 291 281 279 279
108 147 185 151 172 224 259 225 194 210 233 228 281 219 310 244 221 219 222 207 199 204 206 197 190 188 191 196 204 215 229 227 228 248 260 255 252 260 270 279 282 275 270 267
115 134 182 138 85 5 263 250 234 241 222 251 249 262 224 316 213 206 215 203 210 211 213 198 196 191 198 200 205 212 223 222 232 250 265 247 240 253 259 270 273 272 271 270
83 138 130 225 345 322 267 278 238 231 238 236 220 132 153 238 237 248 232 216 221 218 211 197 195 194 198 199 202 213 217 221 234 247 259 240 247 252 257 266 273 275 279 280
126 103 49 152 237 232 26 334 277 264 268 211 277 27 297 286 292 274 234 234 234 227 205 195 197 193 196 194 201 209 206 225 243 244 251 246 242 251 263 267 273 279 273 274
337 133 114 222 223 318 208 154 233 223 347 191 215 280 49 2 276 341 267 242 248 216 197 203 194 189 175 181 195 197 209 236 237 249 251 249 245 253 259 264 274 281 270 274
76 69 195 165 208 254 225 229 226 181 256 188 209 173 174 201 310 8 352 315 220 193 188 181 173 164 167 185 183 193 218 231 242 251 254 255 250 253 258 261 268 274 264 275
110 40 183 155 220 266 281 200 269 234 19 335 339 57 154 226 315 351 67 109 174 160 169 154 159 170 180 169 173 208 225 232 239 249 251 253 249 251 253 257 260 265 271 280
206 166 170 124 193 271 123 162 246 101 205 199 223 200 197 205 133 110 156 161 153 155 158 166 167 183 170 170 188 218 233 245 243 244 250 251 250 249 253 253 263 264 270 275
225 255 265 206 205 228 230 251 301 199 266 246 214 203 199 194 179 167 183 178 169 171 168 176 182 183 181 191 206 228 243 243 242 240 248 254 254 253 253 258 264 270 269 271
214 185 253 235 160 244 252 252 252 235 225 254 237 228 193 196 190 189 183 169 175 185 185 180 183 195 208 212 216 235 259 260 261 260 264 268 266 264 258 256 259 263 267 274
19 161 232 271 262 295 268 246 285 230 213 249 227 223 235 226 212 195 194 194 182 180 185 186 202 217 242 241 241 249 253 249 259 269 269 270 271 272 272 260 260 255 255 252
189 181 232 3 351 325 104 12 99 149 47 338 294 302 258 228 238 212 214 218 194 175 179 190 210 233 242 245 247 251 256 250 259 274 274 271 273 276 275 275 279 233 240 260